H1 CPF  2  DGF 2024 07 17 10 199 01 etalon1    NONE      
H2  8900103  525    19751 2024 07 17 00 00 00 2024 07 24 00 00 00   120 1 1  0 0 0 1
H5  0.5673
H9
10 0 60514  57600.000000  0      -9021215.356      17318446.555     -16319126.344
10 0 60514  57720.000000  0      -8989957.128      17047959.124     -16618854.129
10 0 60514  57840.000000  0      -8961035.976      16772314.082     -16912793.913
10 0 60514  57960.000000  0      -8934549.131      16491628.306     -17200843.568
10 0 60514  58080.000000  0      -8910591.094      16206021.725     -17482903.041
10 0 60514  58200.000000  0      -8889253.561      15915617.239     -17758874.386
10 0 60514  58320.000000  0      -8870625.347      15620540.630     -18028661.799
10 0 60514  58440.000000  0      -8854792.310      15320920.482     -18292171.655
10 0 60514  58560.000000  0      -8841837.281      15016888.090     -18549312.535
10 0 60514  58680.000000  0      -8831839.995      14708577.369     -18799995.261
10 0 60514  58800.000000  0      -8824877.024      14396124.761     -19044132.930
10 0 60514  58920.000000  0      -8821021.714      14079669.146     -19281640.936
10 0 60514  59040.000000  0      -8820344.119      13759351.739     -19512437.010
10 0 60514  59160.000000  0      -8822910.948      13435315.998     -19736441.238
10 0 60514  59280.000000  0      -8828785.506      13107707.523     -19953576.098
10 0 60514  59400.000000  0      -8838027.638      12776673.956     -20163766.479
10 0 60514  59520.000000  0      -8850693.684      12442364.876     -20366939.713
10 0 60514  59640.000000  0      -8866836.423      12104931.700     -20563025.595
10 0 60514  59760.000000  0      -8886505.034      11764527.577     -20751956.412
10 0 60514  59880.000000  0      -8909745.053      11421307.279     -20933666.962
10 0 60514  60000.000000  0      -8936598.328      11075427.097     -21108094.577
10 0 60514  60120.000000  0      -8967102.988      10727044.732     -21275179.147
10 0 60514  60240.000000  0      -9001293.408      10376319.185     -21434863.139
10 0 60514  60360.000000  0      -9039200.175      10023410.649     -21587091.613
10 0 60514  60480.000000  0      -9080850.065       9668480.396     -21731812.247
10 0 60514  60600.000000  0      -9126266.012       9311690.666     -21868975.349
10 0 60514  60720.000000  0      -9175467.094       8953204.554     -21998533.877
10 0 60514  60840.000000  0      -9228468.505       8593185.900     -22120443.451
10 0 60514  60960.000000  0      -9285281.547       8231799.172     -22234662.373
10 0 60514  61080.000000  0      -9345913.615       7869209.356     -22341151.636
10 0 60514  61200.000000  0      -9410368.182       7505581.839     -22439874.938
10 0 60514  61320.000000  0      -9478644.801       7141082.296     -22530798.696
10 0 60514  61440.000000  0      -9550739.096       6775876.576     -22613892.053
10 0 60514  61560.000000  0      -9626642.763       6410130.586     -22689126.891
10 0 60514  61680.000000  0      -9706343.570       6044010.180     -22756477.837
10 0 60514  61800.000000  0      -9789825.369       5677681.042     -22815922.276
10 0 60514  61920.000000  0      -9877068.097       5311308.571     -22867440.349
10 0 60514  62040.000000  0      -9968047.793       4945057.771     -22911014.968
10 0 60514  62160.000000  0     -10062736.611       4579093.136     -22946631.815
10 0 60514  62280.000000  0     -10161102.839       4213578.536     -22974279.349
10 0 60514  62400.000000  0     -10263110.918       3848677.106     -22993948.806
10 0 60514  62520.000000  0     -10368721.466       3484551.132     -23005634.204
10 0 60514  62640.000000  0     -10477891.307       3121361.946     -23009332.341
10 0 60514  62760.000000  0     -10590573.498       2759269.808     -23005042.799
10 0 60514  62880.000000  0     -10706717.365       2398433.802     -22992767.938
10 0 60514  63000.000000  0     -10826268.534       2039011.728     -22972512.896
10 0 60514  63120.000000  0     -10949168.976       1681159.990     -22944285.587
10 0 60514  63240.000000  0     -11075357.040       1325033.495     -22908096.698
10 0 60514  63360.000000  0     -11204767.505        970785.546     -22863959.679
10 0 60514  63480.000000  0     -11337331.623        618567.736     -22811890.742
10 0 60514  63600.000000  0     -11472977.169        268529.851     -22751908.854
10 0 60514  63720.000000  0     -11611628.493        -79180.235     -22684035.724
10 0 60514  63840.000000  0     -11753206.578       -424416.659     -22608295.801
10 0 60514  63960.000000  0     -11897629.093       -767035.666     -22524716.260
10 0 60514  64080.000000  0     -12044810.457      -1106895.704     -22433326.991
10 0 60514  64200.000000  0     -12194661.900      -1443857.521     -22334160.590
10 0 60514  64320.000000  0     -12347091.531      -1777784.254     -22227252.345
10 0 60514  64440.000000  0     -12502004.400      -2108541.526     -22112640.223
10 0 60514  64560.000000  0     -12659302.573      -2435997.527     -21990364.853
10 0 60514  64680.000000  0     -12818885.204      -2760023.108     -21860469.514
10 0 60514  64800.000000  0     -12980648.607      -3080491.860     -21723000.118
10 0 60514  64920.000000  0     -13144486.335      -3397280.201     -21578005.191
10 0 60514  65040.000000  0     -13310289.260      -3710267.456     -21425535.857
10 0 60514  65160.000000  0     -13477945.649      -4019335.932     -21265645.819
10 0 60514  65280.000000  0     -13647341.254      -4324370.999     -21098391.336
10 0 60514  65400.000000  0     -13818359.393      -4625261.159     -20923831.206
10 0 60514  65520.000000  0     -13990881.036      -4921898.121     -20742026.744
10 0 60514  65640.000000  0     -14164784.899      -5214176.869     -20553041.758
10 0 60514  65760.000000  0     -14339947.527      -5501995.726     -20356942.525
10 0 60514  65880.000000  0     -14516243.394      -5785256.421     -20153797.771
10 0 60514  66000.000000  0     -14693544.993      -6063864.150     -19943678.642
10 0 60514  66120.000000  0     -14871722.929      -6337727.633     -19726658.678
10 0 60514  66240.000000  0     -15050646.022      -6606759.170     -19502813.792
10 0 60514  66360.000000  0     -15230181.401      -6870874.697     -19272222.235
10 0 60514  66480.000000  0     -15410194.605      -7129993.835     -19034964.574
10 0 60514  66600.000000  0     -15590549.684      -7384039.935     -18791123.661
10 0 60514  66720.000000  0     -15771109.301      -7632940.128     -18540784.600
10 0 60514  66840.000000  0     -15951734.835      -7876625.365     -18284034.725
10 0 60514  66960.000000  0     -16132286.485      -8115030.456     -18020963.558
10 0 60514  67080.000000  0     -16312623.377      -8348094.106     -17751662.787
10 0 60514  67200.000000  0     -16492603.669      -8575758.949     -17476226.228
10 0 60514  67320.000000  0     -16672084.656      -8797971.579     -17194749.791
10 0 60514  67440.000000  0     -16850922.880      -9014682.580     -16907331.451
10 0 60514  67560.000000  0     -17028974.240      -9225846.543     -16614071.208
10 0 60514  67680.000000  0     -17206094.094      -9431422.098     -16315071.055
10 0 60514  67800.000000  0     -17382137.375      -9631371.923     -16010434.941
10 0 60514  67920.000000  0     -17556958.700      -9825662.767     -15700268.735
10 0 60514  68040.000000  0     -17730412.475     -10014265.458     -15384680.187
10 0 60514  68160.000000  0     -17902353.009     -10197154.915     -15063778.892
10 0 60514  68280.000000  0     -18072634.626     -10374310.154     -14737676.252
10 0 60514  68400.000000  0     -18241111.769     -10545714.291     -14406485.434
10 0 60514  68520.000000  0     -18407639.118     -10711354.542     -14070321.334
10 0 60514  68640.000000  0     -18572071.695     -10871222.223     -13729300.534
10 0 60514  68760.000000  0     -18734264.975     -11025312.742     -13383541.266
10 0 60514  68880.000000  0     -18894074.997     -11173625.591     -13033163.362
10 0 60514  69000.000000  0     -19051358.473     -11316164.334     -12678288.221
10 0 60514  69120.000000  0     -19205972.898     -11452936.595     -12319038.765
10 0 60514  69240.000000  0     -19357776.653     -11583954.037     -11955539.391
10 0 60514  69360.000000  0     -19506629.123     -11709232.342     -11587915.935
10 0 60514  69480.000000  0     -19652390.793     -11828791.190     -11216295.622
10 0 60514  69600.000000  0     -19794923.363     -11942654.230     -10840807.028
10 0 60514  69720.000000  0     -19934089.850     -12050849.054     -10461580.031
10 0 60514  69840.000000  0     -20069754.692     -12153407.158     -10078745.767
10 0 60514  69960.000000  0     -20201783.854     -12250363.915      -9692436.587
10 0 60514  70080.000000  0     -20330044.930     -12341758.532      -9302786.010
10 0 60514  70200.000000  0     -20454407.242     -12427634.010      -8909928.674
10 0 60514  70320.000000  0     -20574741.944     -12508037.104      -8514000.295
10 0 60514  70440.000000  0     -20690922.120     -12583018.271      -8115137.617
10 0 60514  70560.000000  0     -20802822.880     -12652631.625      -7713478.366
10 0 60514  70680.000000  0     -20910321.457     -12716934.886      -7309161.202
10 0 60514  70800.000000  0     -21013297.305     -12775989.322      -6902325.672
10 0 60514  70920.000000  0     -21111632.185     -12829859.696      -6493112.162
10 0 60514  71040.000000  0     -21205210.265     -12878614.206      -6081661.850
10 0 60514  71160.000000  0     -21293918.203     -12922324.422      -5668116.656
10 0 60514  71280.000000  0     -21377645.238     -12961065.221      -5252619.193
10 0 60514  71400.000000  0     -21456283.278     -12994914.723      -4835312.722
10 0 60514  71520.000000  0     -21529726.981     -13023954.221      -4416341.097
10 0 60514  71640.000000  0     -21597873.838     -13048268.110      -3995848.724
10 0 60514  71760.000000  0     -21660624.255     -13067943.811      -3573980.502
10 0 60514  71880.000000  0     -21717881.631     -13083071.701      -3150881.784
99